Regional Weather Roundup
Issued by NWS

Home | Current Version | Previous Version | Graphics & Text | Print | Product List | Glossary On
Versions: 1 2 3 4 5 6 7 8 9 10 11 12 13 14 15 16 17 18 19 20 21 22 23 24 25 26 27 28 29 30 31 32 33 34 35 36 37 38 39 40 41 42 43 44 45 46 47 48 49 50
000
ASUS43 KTOP 231708
RWRKS

WEATHER ROUNDUP FOR KANSAS
NATIONAL WEATHER SERVICE GOODLAND KS
1200 PM CDT TUE MAY 23 2017

NOTE:  "FAIR" INDICATES FEW OR NO CLOUDS BELOW 12,000 FEET WITH NO
SIGNIFICANT WEATHER AND/OR OBSTRUCTIONS TO VISIBILITY.

KSZ001>006-013>018-027>032-041>047-231800-
NORTHWEST KANSAS

CITY           SKY/WX    TMP DP  RH WIND       PRES   REMARKS
GOODLAND       PTSUNNY   57  39  51 NW23G32   30.08F
HAYS           PTSUNNY   63  42  46 N20       29.99F
RUSSELL        MOSUNNY   64  45  49 NW21G29   29.97F
$$

KSZ061>065-074>080-084>089-231800-
SOUTHWEST KANSAS

CITY           SKY/WX    TMP DP  RH WIND       PRES   REMARKS
DODGE CITY     MOSUNNY   63  41  44 N21G28    30.04F
ELKHART          N/A     57  31  37 N16         N/A
GARDEN CITY    MOSUNNY   63  38  39 N20G31    30.06F
GREAT BEND     MOSUNNY   63  45  51 NW14      29.99F
LIBERAL        MOSUNNY   60  43  53 N18G24    30.09F
PRATT          PTSUNNY   60  41  49 N18G24    30.01F
$$

KSZ066>073-081>083-090>101-231800-
SOUTHEAST KANSAS

CITY           SKY/WX    TMP DP  RH WIND       PRES   REMARKS
CHANUTE        CLOUDY    66  50  56 N13       29.90F
COFFEYVILLE    CLOUDY    63  52  67 NW17      29.91S
HUTCHINSON     MOSUNNY   65  43  44 N17G26    29.96F
MEDICINE LODGE   N/A     66  43  43 N21G28    29.98F
NEWTON         MOSUNNY   64  46  52 N18G29    29.95F
PARSONS        PTSUNNY   63  51  65 N14G21    29.92S
WICHITA INTL   MOSUNNY   66  46  48 NW20G28   29.95F
WICHITA JABRA  MOSUNNY   64  46  52 NW20      29.94F
WINFIELD       MOSUNNY   65  49  56 N14G21    29.96F
$$

KSZ007>012-019>026-033>040-048>060-102>105-231800-
NORTHEAST KANSAS

CITY           SKY/WX    TMP DP  RH WIND       PRES   REMARKS
CONCORDIA      CLOUDY    62  48  60 NW12G21   29.93F
EMPORIA        CLOUDY    63  46  54 NW15      29.91F
LAWRENCE       PTSUNNY   63  49  60 NW17      29.89F
MANHATTAN      MOSUNNY   65  47  52 NW8G18    29.91F
MARYSVILLE     CLOUDY    61  46  59 NW10G18   29.90F
OLATHE IND     MOSUNNY   63  48  58 N14G23    29.88F
OLATHE EXE     MOSUNNY   63  47  55 N17       29.87F
SALINA         SUNNY     67  45  45 NW15G24   29.94F
TOPEKA BILLARD PTSUNNY   64  49  57 N12       29.89F
TOPEKA FORBES  PTSUNNY   64  48  56 NW16G22   29.89F
$$




USA.gov is the U.S. government's official web portal to all federal, state and local government web resources and services.